Hourly Data Report for February 17, 2018

TORONTO CITY
ONTARIO

43°40'00.000" N
79°24'00.000" W
112.50 m
6158355
71508
XTO

Download Data

Hourly Data (February 2018)
Hourly Data Report for February 17, 2018
TIME
LST
Temp Definition
°C
Dew Point Definition
°C
Rel Hum Definition
%
Precip. Amount Definition
mm

Wind Dir Definition
10's deg

Wind Spd Definition
km/h
Visibility Definition
km
Stn Press Definition
kPa
Hmdx Definition


Wind Chill Definition


Weather Definition


00:00 -4.6 -10.5 63 0.0 LegendMM LegendMM   101.08     LegendNANA
01:00 -5.0 -10.2 67 0.0 LegendMM LegendMM   101.09     LegendNANA
02:00 -5.3 -10.1 69 0.0 LegendMM LegendMM   101.11     LegendNANA
03:00 -5.3 -9.8 71 0.0 LegendMM LegendMM   101.14     LegendNANA
04:00 -4.6 -8.9 72 0.0 LegendMM LegendMM   101.08     LegendNANA
05:00 -4.3 -8.2 75 0.0 LegendMM LegendMM   101.06     LegendNANA
06:00 -4.0 -7.7 76 0.0 LegendMM LegendMM   101.08     LegendNANA
07:00 -3.3 -6.3 80 0.0 LegendMM LegendMM   101.07     LegendNANA
08:00 -2.9 -5.9 80 0.0 LegendMM LegendMM   101.05     LegendNANA
09:00 -1.6 -6.0 72 0.0 LegendMM LegendMM   101.02     LegendNANA
10:00 -1.3 -6.1 70 0.0 LegendMM LegendMM   100.96     LegendNANA
11:00 -0.6 -7.2 61 0.0 LegendMM LegendMM   100.90     LegendNANA
12:00 -0.5 -7.5 59 0.0 LegendMM LegendMM   100.77     LegendNANA
13:00 -0.6 -7.8 58 0.0 LegendMM LegendMM   100.59     LegendNANA
14:00 -0.7 -7.4 60 0.0 LegendMM LegendMM   100.44     LegendNANA
15:00 -0.8 -7.0 62 0.0 LegendMM LegendMM   100.39     LegendNANA
16:00 -0.7 -7.2 62 0.0 LegendMM LegendMM   100.31     LegendNANA
17:00 -0.7 -6.9 63 0.0 LegendMM LegendMM   100.24     LegendNANA
18:00 -0.6 -7.1 61 0.0 LegendMM LegendMM   100.27     LegendNANA
19:00 -0.6 -6.8 63 0.0 LegendMM LegendMM   100.28     LegendNANA
20:00 -0.6 -6.4 65 0.0 LegendMM LegendMM   100.15     LegendNANA
21:00 -0.5 -6.0 67 0.0 LegendMM LegendMM   100.09     LegendNANA
22:00 -0.5 -5.6 69 0.0 LegendMM LegendMM   100.08     LegendNANA
23:00 -0.7 -6.0 67 0.0 LegendMM LegendMM   100.11     LegendNANA

Notes on Data Quality.

Legend

  • E = Estimated
  • M = Missing
  • NA = Not Available*
  • [empty] = Indicates an unobserved value
Date modified: